Location: Bellflower
(33.8817°N, 118.1170°W)
Time: 22:34:01
(UTC+00:00)

Cosmos 1441 Rocket - Pass Details

Date: 23 November 2020
Orbit: 497 x 539 km, 81.1° (Epoch: 19 January)

Event Time Altitude Azimuth Distance (km) Brightness Sun altitude
Rises 13:13:13 0° 201° (SSW) 2,630 6.7 -16.4°
Reaches altitude 10° 13:15:26 10° 208° (SSW) 1,739 5.7 -16.0°
Maximum altitude 13:19:04 43° 280° (W) 731 3.4 -15.2°
Drops below altitude 10° 13:22:42 10° 353° (N) 1,728 5.6 -14.5°
Sets 13:24:54 0° 1° (N) 2,610 6.6 -14.1°
